Погода в Авило-Успенке

Россия / Ростовская область     47°41′37″N   38°40′31″E
темп.,
°C
ветер,
м/с
пор.,
м/с
влажн.,
%
обл.,
%
осадки,
мм/ч
давл.,
гПа
погр.,
м
13 апреля, вт
вт1300:00+10з1187100 0.0 102229
03:00+10з1289100 0.1 102282
06:00+10зсз2289100 0.1 102165
09:00+10юз2391100 0.3 1022156
12:00+10з2286100 0.1 1022265
15:00+11юв1180100 0.1 1022215
18:00+10вюв2386100 0.0 1022113
21:00+10ююв1189100 0.3 102128
14 апреля, ср
ср1400:00+10зсз1190100 0.4 102022
03:00+9з1186100 0.4 102016
06:00+9сз1281100 0.0 101922
09:00+10ююз1174100 0.2 1019240
12:00+11з2370100 0.1 1018357
15:00+14зсз1159100 0.1 1017853
18:00+14зюз226584 0.0 1016251
21:00+11юз227888 0.0 101728
15 апреля, чт
чт1500:00+9зюз348299 0.0 101665
03:00+8з12803 0.0 101610
06:00+7з118079 0.0 101610
09:00+12юз22602 0.0 1016355
12:00+16ю45525 0.0 10151325
15:00+17ююз55495 0.0 10151541
18:00+14юз666097 0.0 1015730
21:00+12юз367726 0.0 1015346
16 апреля, пт
пт1600:00+9ююз24920 0.0 1015137
03:00+8ююз249838 0.0 1015103
06:00+7з11968 0.0 101612
09:00+11зюз226635 0.0 1016522
12:00+14юз4454100 0.0 10161437
15:00+13ююз6657100 0.0 10171364
18:00+9ю337888 0.4 1017346
21:00+8юз368133 0.4 1018261
17 апреля, сб
сб1700:00+9зюз4783100 0.1 1017526
03:00+8з5987100 0.5 1018530
06:00+8зюз4887100 0.1 1019559
09:00+9зюз4679100 0.1 1020441
12:00+13зюз444623 0.0 10211697
15:00+15зюз33395 0.0 10211915
18:00+15юз224329 0.0 10211528
21:00+10юз22665 0.0 102251